Tracking 33744 objects as of 12-Apr-2026
HD Live streaming from Space Station
objects crossing your sky now

COSMOS 1275 DEB

Track COSMOS 1275 DEB now!
10-day predictions


NORAD ID: 42191
Int'l Code: 1981-053TF
Perigee: 835.7 km
Apogee: 895.0 km
Inclination: 82.8 °
Period: 102.1 minutes
Semi major axis: 7236 km
RCS: Unknown
Launch date: June 4, 1981
Source: Commonwealth of Independent States (former USSR) (CIS)
Launch site: PLESETSK MISSILE AND SPACE COMPLEX (PKMTR)

Note: This is SATELLITE DEBRIS
Your satellite tracking list
Your tracking list is empty




NASA's NSSDC Master Catalog

Two Line Element Set (TLE):
1 42191U 81053TF  26102.49767054  .00001502  00000-0  83077-3 0  9993
2 42191  82.8235 178.7344 0041015 153.7659 206.5607 14.10339378633915
Source of the keplerian elements: AFSPC